Location: Red Deer
(52.2681°N, 113.8112°W)
Time: 00:47:41
(UTC-07:00)

BlueWalker 3 - Pass Details

Date: 06 December 2022
Orbit: 499 x 517 km, 53.2° (Epoch: 29 January)

Event Time Altitude Azimuth Distance (km) Brightness Sun altitude
Rises 17:13:31 0° 276° (W) 2,634 6.6 -7.3°
Reaches altitude 10° 17:15:44 10° 278° (W) 1,743 5.6 -7.6°
Maximum altitude 17:19:41 78° 4° (N) 530 2.0 -8.1°
Drops below altitude 10° 17:23:36 10° 92° (E) 1,728 4.1 -8.7°
Enters shadow 17:23:53 - 92° (E) 1,843 4.3 -8.7°
